Date,TemperatureHighF,TemperatureAvgF,TemperatureLowF,DewpointHighF,DewpointAvgF,DewpointLowF,HumidityHigh,HumidityAvg,HumidityLow,PressureMaxIn,PressureMinIn,WindSpeedMaxMPH,WindSpeedAvgMPH,GustSpeedMaxMPH,PrecipitationSumIn
2014-7-7,61.8,56.9,54.9,58.0,55.1,54.0,97,94,86,29.90,29.83,12,4,15,0.00
2014-7-8,59.5,56.7,54.5,57.0,55.3,54.0,98,95,91,29.95,29.86,11,4,13,0.00
2014-7-9,65.0,60.1,57.2,60.0,57.2,56.0,95,91,81,29.97,29.88,8,3,10,0.00
2014-7-10,66.2,60.7,58.4,60.0,57.8,57.0,96,91,80,29.95,29.90,7,2,10,0.01
2014-7-11,63.8,61.6,59.3,59.0,57.9,57.0,92,88,83,30.01,29.93,12,6,14,0.00
2014-7-12,65.2,61.3,57.8,60.0,58.0,56.0,94,89,83,30.01,29.94,16,6,21,0.00
2014-7-13,61.7,58.7,56.4,58.0,56.5,55.0,96,93,88,29.96,29.82,18,7,21,0.00
2014-7-14,67.6,62.1,57.9,63.0,59.2,56.0,94,90,84,29.94,29.81,13,2,15,0.00
2014-7-15,68.0,64.3,60.2,64.0,61.8,58.0,96,92,85,30.00,29.93,5,1,7,0.00
2014-7-16,71.5,65.8,62.7,63.0,61.1,59.0,94,85,72,30.03,29.95,5,2,7,0.00
2014-7-17,69.9,63.3,59.6,64.0,60.1,57.0,96,90,80,30.01,29.95,8,2,10,0.00
2014-7-18,65.9,62.3,60.0,62.0,59.7,58.0,96,91,85,30.00,29.93,7,2,8,0.00
2014-7-19,70.3,64.1,60.3,62.0,59.6,57.0,92,85,73,29.95,29.90,7,2,9,0.00
2014-7-20,71.9,65.7,61.5,65.0,61.3,58.0,90,86,77,29.97,29.89,6,2,6,0.00
2014-7-21,72.2,65.8,62.5,66.0,61.7,59.0,92,87,77,30.05,29.95,8,3,12,0.00
2014-7-22,71.0,65.3,60.8,64.0,61.4,59.0,94,87,79,30.07,30.00,10,4,10,0.00
2014-7-23,70.7,64.7,60.2,64.0,60.6,56.0,93,86,78,30.07,29.92,21,6,24,0.00
2014-7-24,65.3,61.6,59.5,60.0,59.1,57.0,95,91,83,29.94,29.78,18,6,24,0.00
2014-7-25,65.0,60.2,58.3,61.0,58.3,57.0,97,94,87,29.89,29.80,8,3,10,0.00
2014-7-26,64.4,59.2,56.4,62.0,58.1,56.0,98,96,91,29.95,29.87,7,2,8,0.00
2014-7-27,67.9,61.2,57.1,63.0,59.3,56.0,98,94,83,29.97,29.92,9,3,13,0.00
2014-7-28,67.9,63.4,59.5,64.0,60.9,58.0,96,91,85,30.04,29.94,14,4,14,0.00
2014-7-29,65.8,62.4,59.8,62.0,60.2,58.0,96,93,87,30.03,29.94,13,5,15,0.00
2014-7-30,65.1,61.4,59.3,62.0,59.7,58.0,97,94,88,29.97,29.90,12,5,15,0.00
2014-7-31,65.0,61.4,59.0,61.0,59.5,58.0,97,94,88,29.95,29.86,15,5,15,0.00
2014-8-1,65.0,61.2,58.8,62.0,59.4,58.0,97,94,87,29.92,29.84,12,3,12,0.00
2014-8-2,66.6,61.1,58.9,62.0,59.2,58.0,97,94,83,29.93,29.86,13,3,16,0.00
2014-8-3,65.0,61.2,59.1,61.0,58.8,57.0,96,92,85,29.95,29.89,11,5,13,0.00
2014-8-4,68.8,62.2,59.6,61.0,58.8,58.0,94,89,77,29.99,29.91,6,2,8,0.00
2014-8-5,68.3,63.4,61.4,61.0,59.1,58.0,93,86,76,30.02,29.97,9,3,11,0.00
2014-8-6,63.5,61.7,60.5,62.0,59.8,59.0,95,94,92,30.03,29.94,7,2,9,0.00
2014-8-7,64.5,61.2,59.4,61.0,59.5,58.0,98,94,87,29.97,29.88,11,3,13,0.00
2014-8-8,66.4,61.3,58.3,61.0,58.6,56.0,95,91,83,29.92,29.86,12,4,13,0.00
2014-8-9,64.1,60.8,58.6,60.0,58.1,56.0,95,91,85,29.96,29.88,13,6,15,0.00
2014-8-10,64.8,61.8,58.7,60.0,58.2,57.0,93,88,83,30.00,29.91,14,7,15,0.00
2014-8-11,65.3,61.4,56.9,60.0,57.7,55.0,94,88,82,29.94,29.90,10,4,12,0.00
2014-8-12,66.2,62.1,59.4,60.0,58.3,57.0,92,87,80,29.98,29.89,12,4,13,0.00
2014-8-13,65.3,62.0,58.9,61.0,58.8,57.0,94,89,84,29.98,29.90,10,5,13,0.00
2014-8-14,64.4,61.4,58.9,61.0,59.3,58.0,96,93,88,29.96,29.90,12,3,14,0.00
2014-8-15,64.7,61.3,58.7,61.0,59.0,58.0,97,92,87,29.98,29.92,9,4,11,0.00
2014-8-16,64.5,62.1,58.5,60.0,58.7,57.0,95,89,85,30.01,29.94,12,7,13,0.00
2014-8-17,65.5,61.2,56.9,61.0,58.5,55.0,95,91,85,29.98,29.87,15,7,18,0.00
2014-8-18,63.3,61.5,59.2,60.0,59.1,58.0,95,92,90,29.88,29.80,13,6,16,0.00
2014-8-19,65.3,64.0,62.7,61.0,60.3,60.0,90,88,85,29.86,29.83,5,2,255,0.00
2014-8-20,68.9,64.9,60.5,62.0,60.0,58.0,90,84,76,29.93,29.86,9,5,255,0.00
2014-8-21,67.7,62.3,57.7,62.0,58.9,56.0,94,89,80,29.94,29.88,10,4,12,0.00
2014-8-22,66.7,63.3,60.3,61.0,59.9,58.0,94,89,82,29.95,29.89,8,5,10,0.00
2014-8-23,68.8,64.4,60.5,61.0,58.6,56.0,89,82,72,29.95,29.85,9,4,255,0.00
2014-8-24,69.3,64.2,60.3,61.0,58.4,56.0,88,82,73,29.89,29.82,8,3,9,0.00
2014-8-25,70.9,65.0,61.1,59.0,57.2,55.0,87,76,63,29.93,29.83,7,2,8,0.00
2014-8-26,66.7,62.0,59.3,60.0,56.6,54.0,87,83,79,29.97,29.91,9,4,10,0.00
2014-8-28,67.2,64.9,61.6,62.0,60.6,59.0,92,86,82,29.99,29.91,13,8,16,0.00
2014-8-29,66.1,63.7,61.4,62.0,60.6,59.0,94,89,85,29.88,29.82,14,8,255,0.00
2014-8-30,68.6,64.8,61.2,63.0,60.4,58.0,92,86,79,29.83,29.77,18,7,22,0.00
2014-8-31,65.3,61.4,58.3,61.0,58.2,56.0,93,89,84,29.86,29.77,19,5,23,0.00
2014-9-1,64.6,60.5,57.2,60.0,57.9,56.0,95,91,85,29.82,29.76,11,4,15,0.00
2014-9-2,64.2,62.8,61.5,61.0,59.7,59.0,93,89,87,29.84,29.77,12,6,12,0.00
2014-9-3,67.1,63.9,60.9,61.0,59.3,58.0,89,85,80,29.78,29.69,7,3,7,0.00
2014-9-4,68.1,64.0,60.8,61.0,58.7,57.0,89,83,75,29.80,29.74,6,2,7,0.00
2014-9-5,65.4,61.6,59.1,60.0,57.7,56.0,92,87,81,29.88,29.79,9,4,12,0.00
2014-9-6,64.8,61.5,58.1,60.0,57.7,55.0,91,87,82,29.93,29.83,12,6,15,0.00
2014-9-7,65.1,62.2,57.9,60.0,58.3,55.0,91,87,82,29.85,29.76,14,7,255,0.00
2014-9-8,64.4,61.1,57.1,59.0,56.7,54.0,92,86,80,29.90,29.80,12,5,16,0.00
2014-9-9,63.9,60.4,56.2,59.0,57.1,54.0,94,89,84,29.93,29.84,14,7,21,0.00
2014-9-10,61.0,58.0,55.9,58.0,56.6,55.0,97,95,90,29.89,29.82,10,4,255,0.00
2014-9-11,62.4,60.2,58.2,59.0,58.2,57.0,96,93,89,29.86,29.80,11,6,255,0.00
2014-9-12,61.6,60.9,60.0,60.0,59.1,59.0,96,94,93,29.84,29.79,11,8,255,0.00
2014-9-13,63.0,62.2,61.1,61.0,59.9,59.0,94,92,91,29.81,29.76,12,8,13,0.00
2014-9-14,64.6,62.7,60.3,61.0,59.9,58.0,93,90,88,29.79,29.74,15,6,16,0.00
2014-9-15,67.1,64.0,60.8,61.0,59.5,56.0,94,85,81,29.87,29.79,14,7,255,0.00
2014-9-16,67.3,62.3,59.4,62.0,58.7,56.0,94,88,82,29.87,29.76,17,5,19,0.00
2014-9-17,65.5,62.6,60.5,62.0,60.0,59.0,95,91,87,29.81,29.76,11,4,255,0.00
2014-9-18,69.9,65.2,62.1,67.0,62.9,60.0,95,92,88,29.86,29.79,8,2,10,0.00
2014-9-19,68.0,65.6,62.1,64.0,62.5,60.0,94,90,86,29.86,29.80,14,8,18,0.00
2014-9-20,67.3,65.4,63.4,62.0,61.4,60.0,90,87,82,29.91,29.87,9,6,255,0.00
2014-9-21,66.6,65.4,62.3,62.0,61.3,60.0,92,86,84,29.99,29.92,12,7,12,0.00
2014-9-22,66.3,64.3,61.2,62.0,60.9,59.0,92,89,85,29.98,29.89,16,7,16,0.00
2014-9-23,66.4,63.7,60.8,63.0,61.0,59.0,94,91,87,29.95,29.89,8,4,255,0.00
2014-9-24,67.7,66.2,64.6,63.0,62.3,61.0,90,87,85,29.91,29.85,11,7,255,0.00
2014-9-25,67.6,64.3,61.1,64.0,60.2,57.0,90,86,83,29.95,29.90,16,8,255,0.00
2014-9-26,67.8,63.2,59.8,62.0,57.8,53.0,91,82,75,29.93,29.84,17,7,20,0.00
2014-9-27,65.3,61.8,57.9,60.0,57.0,53.0,91,84,75,29.92,29.80,13,6,18,0.00
2014-9-28,69.7,64.0,58.1,62.0,59.3,55.0,92,85,75,29.90,29.83,8,4,10,0.00
2014-9-29,66.1,64.5,61.3,62.0,60.7,59.0,92,88,84,29.96,29.87,17,9,19,0.00
2014-9-30,65.4,61.6,58.2,61.0,58.6,56.0,94,90,83,29.90,29.76,16,6,18,0.00
2014-10-1,76.8,66.8,59.3,64.0,57.8,47.0,90,75,35,29.84,29.74,16,3,16,0.00
2014-10-2,89.7,77.6,68.6,59.0,47.9,40.0,58,36,23,29.94,29.84,12,5,15,0.00
2014-10-3,88.6,75.5,66.7,60.0,48.9,43.0,65,41,22,30.00,29.93,15,4,19,0.00
2014-10-4,83.7,75.1,63.4,61.0,48.2,36.0,83,43,21,29.96,29.82,8,2,11,0.00
2014-10-5,77.5,69.6,61.0,62.0,53.5,35.0,90,62,23,29.87,29.80,9,2,13,0.00
2014-10-6,63.1,59.1,54.8,60.0,56.9,52.0,96,93,88,29.88,29.80,11,2,12,0.00
2014-10-7,60.8,58.7,56.3,60.0,57.3,55.0,97,95,93,29.88,29.79,8,3,11,0.00
2014-10-8,62.8,60.0,57.7,60.0,58.1,56.0,95,93,91,29.84,29.78,12,5,14,0.00
2014-10-9,61.4,58.8,56.5,60.0,57.4,55.0,97,95,92,29.92,29.83,8,2,9,0.00
2014-10-10,63.6,62.2,59.9,60.0,58.6,57.0,91,88,86,29.97,29.93,18,9,18,0.00
2014-10-11,62.3,60.6,58.6,60.0,58.2,57.0,94,92,89,29.97,29.90,14,6,16,0.00
2014-10-12,76.2,63.4,55.1,62.0,57.5,40.0,97,83,27,29.90,29.81,11,3,14,0.00
2014-10-13,76.9,67.2,63.9,64.0,59.4,41.0,91,79,28,29.97,29.85,17,4,19,0.00
2014-10-14,69.6,66.8,65.0,63.0,62.1,61.0,89,85,79,29.90,29.85,12,3,12,0.00
2014-10-15,69.5,66.0,62.6,65.0,62.0,60.0,92,87,84,29.98,29.92,11,6,13,0.00
2014-10-16,66.5,63.7,60.5,62.0,59.0,56.0,89,85,80,29.97,29.89,13,7,255,0.00
2014-10-17,68.5,62.5,57.5,60.0,57.6,54.0,90,84,74,29.97,29.90,9,4,9,0.00
2014-10-18,69.4,65.8,62.3,64.0,61.4,57.0,91,85,79,29.93,29.82,12,6,15,0.00
2014-10-19,67.5,64.2,61.7,63.0,59.2,53.0,94,84,61,29.88,29.81,12,5,13,0.00
2014-10-20,67.6,65.4,62.5,64.0,61.0,57.0,89,86,80,29.96,29.88,16,8,20,0.00
2014-10-21,68.5,63.4,59.3,59.0,53.0,45.0,83,69,48,30.01,29.89,14,5,17,0.00
2014-10-22,69.5,64.2,60.8,60.0,53.0,43.0,84,67,45,29.98,29.90,13,4,16,0.00
2014-10-23,66.1,62.1,57.1,60.0,56.2,47.0,95,81,57,29.99,29.89,13,4,15,0.00
2014-10-24,66.6,61.6,56.0,61.0,58.0,55.0,96,88,80,29.97,29.90,9,3,9,0.00
2014-10-25,67.3,63.7,59.8,63.0,59.9,56.0,91,88,85,30.07,29.97,9,4,11,0.00
2014-10-26,66.6,62.9,58.8,59.0,53.5,46.0,80,72,52,30.06,29.94,14,6,18,0.00
2014-10-27,65.4,61.4,57.8,58.0,50.0,40.0,84,67,46,29.98,29.91,17,5,17,0.00
2014-10-28,70.6,63.9,58.2,56.0,48.6,41.0,77,58,40,30.03,29.96,13,4,14,0.00
2014-10-29,83.2,69.6,63.7,60.0,48.0,43.0,69,47,24,30.02,29.92,20,5,24,0.00
2014-10-30,66.2,63.6,61.3,60.0,55.6,45.0,90,76,47,29.95,29.88,9,3,14,0.00
2014-10-31,66.7,63.7,59.5,61.0,59.5,57.0,93,86,81,29.90,29.76,10,5,255,0.14
2014-11-1,60.8,58.7,55.8,55.0,52.5,49.0,83,80,74,30.00,29.89,11,6,15,0.00
2014-11-2,64.4,58.2,53.1,56.0,50.6,46.0,85,76,69,30.12,30.00,14,5,14,0.00
2014-11-3,64.0,60.6,56.7,57.0,50.6,44.0,79,70,50,30.20,30.11,12,5,13,0.07
2014-11-4,67.7,63.7,58.2,58.0,47.2,41.0,80,56,40,30.22,30.11,12,4,17,0.00
2014-11-5,79.7,68.2,63.4,54.0,42.8,34.0,60,41,23,30.14,30.00,16,4,20,0.00
2014-11-6,67.1,63.3,59.1,61.0,54.3,42.0,89,74,43,30.14,30.07,12,3,13,0.00
2014-11-7,68.7,61.3,57.2,61.0,57.2,53.0,95,87,69,30.11,30.00,14,4,16,0.00
2014-11-8,62.0,57.7,54.2,60.0,56.2,53.0,97,95,92,30.04,29.94,11,3,14,0.01
2014-11-9,58.9,57.6,57.2,58.0,56.5,56.0,97,96,96,29.98,29.81,6,1,6,0.00
2014-11-11,63.3,60.6,56.9,59.0,54.8,50.0,88,82,73,29.94,29.88,0,0,255,0.00
2014-11-12,62.8,60.1,57.2,54.0,52.2,51.0,82,75,70,30.01,29.94,0,0,0,0.00
2014-11-13,59.4,57.6,55.9,54.0,53.3,52.0,93,86,80,30.01,29.98,0,0,0,0.01
2014-11-14,65.2,61.3,58.3,59.0,57.0,55.0,90,86,75,30.04,29.98,0,0,0,0.00
2014-11-15,63.5,60.3,57.3,58.0,53.7,49.0,87,79,72,30.09,30.02,0,0,255,0.00
2014-11-16,65.5,61.3,57.1,55.0,49.6,42.0,80,66,49,30.18,30.07,0,0,0,0.00
2014-11-17,65.0,61.3,55.8,54.0,43.7,33.0,71,54,30,30.15,30.05,0,0,0,0.00
2014-11-18,70.8,64.1,58.5,54.0,45.0,28.0,71,52,24,30.09,30.03,0,0,0,0.00
2014-11-19,65.2,62.7,60.7,59.0,47.4,35.0,90,59,33,30.09,30.02,0,0,0,0.00
2014-11-21,64.4,60.3,56.5,57.0,54.0,50.0,87,80,73,30.12,30.01,0,0,255,0.00
2014-11-22,62.2,58.7,55.6,59.0,53.5,50.0,92,83,68,30.14,30.08,0,0,0,0.00
2014-11-23,70.5,62.0,56.7,55.0,48.0,39.0,84,61,33,30.24,30.11,0,0,0,0.00
2014-11-24,72.2,61.2,54.3,55.0,43.1,33.0,81,54,28,30.32,30.20,0,0,0,0.00
2014-11-25,72.9,65.4,59.0,58.0,40.8,25.0,64,42,20,30.36,30.25,0,0,0,0.00
2014-11-26,71.0,65.0,60.4,56.0,44.0,29.0,72,49,24,30.25,30.12,0,0,0,0.00
2014-11-27,67.7,61.6,56.8,60.0,52.8,38.0,90,74,37,30.13,30.00,0,0,0,0.00
2014-11-28,63.4,56.8,52.8,59.0,53.4,50.0,94,88,82,30.00,29.87,0,0,0,0.00
2014-11-29,62.3,57.9,52.4,56.0,52.0,48.0,93,81,65,29.87,29.76,0,0,0,0.00
2014-11-30,63.4,61.2,59.8,57.0,55.3,54.0,89,81,71,29.89,29.75,18,5,23,0.05
2014-12-1,68.1,64.9,61.4,61.0,58.7,56.0,85,81,73,30.06,29.89,14,6,255,0.00
2014-12-2,65.5,62.2,57.3,56.0,54.9,53.0,91,78,63,29.90,29.77,11,7,14,0.36
2014-12-6,65.1,64.9,64.6,62.0,61.5,61.0,90,89,87,30.14,30.13,8,5,255,0.00
2014-12-7,63.4,62.5,61.6,60.0,59.0,58.0,90,88,87,30.17,30.12,8,2,255,0.00
2014-12-8,65.0,62.6,60.2,61.0,58.0,55.0,89,85,77,30.14,30.06,10,3,255,0.00
2014-12-9,64.9,61.6,58.8,62.0,57.3,52.0,93,86,76,30.13,30.00,15,3,15,0.00
2014-12-10,65.0,61.3,58.6,58.0,56.8,55.0,93,85,74,30.01,29.88,11,3,13,0.00
2014-12-11,61.5,61.4,61.3,57.0,57.0,57.0,85,84,84,29.84,29.83,10,9,255,0.00
2014-12-13,61.0,57.0,53.0,53.0,49.4,46.0,80,76,69,30.17,30.10,11,4,255,0.00
2014-12-14,60.6,55.2,51.3,51.0,46.9,44.0,82,74,63,30.11,29.99,14,6,14,0.00
2014-12-15,60.7,57.4,55.7,55.0,51.5,50.0,90,81,74,29.99,29.84,26,12,29,0.30
2014-12-16,62.0,60.4,58.2,57.0,55.9,54.0,89,85,81,29.93,29.87,11,5,255,0.10
2014-12-17,59.5,56.7,53.9,52.0,50.7,49.0,87,80,71,30.09,30.04,11,4,255,0.02
2014-12-18,61.5,58.4,55.2,56.0,53.8,52.0,89,85,80,30.16,30.11,8,3,255,0.00
2014-12-21,66.1,63.0,60.7,62.0,58.6,56.0,91,86,75,30.24,30.15,11,3,16,0.00
2014-12-22,65.0,61.9,59.1,61.0,57.3,54.0,92,85,72,30.17,30.07,13,4,16,0.00
2014-12-23,69.3,63.9,59.4,60.0,55.0,52.0,85,73,58,30.12,30.03,14,5,18,0.00
2014-12-24,61.1,58.9,52.0,58.0,53.8,42.0,92,83,60,30.06,29.90,20,5,27,0.00
2014-12-25,62.2,54.9,49.8,44.0,34.2,29.0,66,46,35,30.02,29.93,14,6,18,0.00
2014-12-26,61.2,53.0,46.5,36.0,31.8,28.0,61,45,34,30.21,30.00,10,4,14,0.00
2014-12-27,60.5,53.1,45.8,48.0,40.9,31.0,76,63,51,30.32,30.20,17,7,19,0.00
2014-12-28,59.0,53.9,49.2,49.0,42.7,40.0,74,66,54,30.29,30.17,13,7,14,0.00
2014-12-29,58.7,53.6,47.6,50.0,44.9,39.0,84,72,63,30.18,30.05,13,7,18,0.00
2014-12-30,56.7,50.5,43.8,42.0,36.9,19.0,76,60,32,30.06,29.96,12,6,17,0.00
2014-12-31,59.5,50.4,44.2,39.0,23.1,13.0,60,36,17,30.12,30.01,26,9,27,0.00
2015-1-1,58.9,51.1,45.0,43.0,37.2,27.0,77,60,36,30.12,30.02,11,6,14,0.00
2015-1-2,57.3,52.1,47.7,48.0,42.6,34.0,76,70,58,30.15,30.04,12,7,13,0.00